Theta_e
322 323 325 325 326 327 330 333 328 327 329 324 319 322 319 317 321 318 318 316 316 315 312 314 315 315 318 320 320 316 316 321 323 325 325 317 311 309 310 312 315 317 319 320 322 324 324 326 327 328 329 329 331 331 332 334 335 336 336 336 337 338 338 338 338 339 338 338 338 338 337 338 339 339 339 339 340 340 339 340 339 340 339 339 339 338 336 336 337 337 339 341 341 340 339 334 328
323 325 326 325 326 326 332 334 331 332 332 320 316 321 317 318 319 318 322 317 316 313 311 313 314 314 314 314 315 318 317 314 315 317 315 311 312 309 308 310 310 312 315 317 319 321 322 324 326 327 327 327 328 329 329 330 332 333 334 334 335 335 336 337 337 337 337 337 337 337 336 336 337 338 339 338 339 339 339 340 339 339 340 340 340 340 339 338 338 339 340 340 340 340 340 340 337
324 327 325 326 326 326 337 334 329 335 330 319 321 326 318 317 318 317 318 316 315 312 312 313 315 313 312 316 315 319 318 312 313 315 311 309 311 308 307 307 307 310 313 315 317 318 320 322 323 324 324 324 325 326 327 327 329 330 331 331 332 333 333 334 335 335 336 336 337 337 337 336 337 338 338 338 338 338 339 340 339 338 338 338 338 339 340 339 339 339 337 338 338 338 339 340 340
322 326 324 327 326 331 354 340 333 338 326 321 322 325 324 321 319 316 314 314 313 311 313 315 316 311 313 319 313 316 316 312 311 313 311 307 308 306 305 306 306 308 310 312 314 316 317 318 319 320 321 321 321 322 322 323 324 325 327 328 328 330 330 331 331 332 333 334 335 335 336 336 336 337 337 337 337 338 339 339 339 338 338 338 337 338 339 339 339 338 336 336 336 335 336 339 340
319 323 322 326 328 330 344 331 330 332 320 326 319 319 333 329 320 316 313 313 312 311 313 316 316 311 312 313 311 316 314 311 310 309 309 305 306 305 305 304 304 306 308 308 309 311 312 313 314 315 316 316 317 317 317 318 319 321 322 323 325 326 326 327 328 329 330 331 332 332 333 333 334 335 336 336 336 336 337 337 338 338 338 338 336 336 338 337 337 338 336 335 334 333 333 337 340
320 323 321 321 321 319 325 320 321 321 319 327 319 317 331 329 320 316 314 313 313 313 314 316 316 313 312 309 309 312 309 311 310 308 307 304 304 303 304 303 302 304 305 304 304 305 306 307 307 308 308 309 310 310 311 311 313 315 316 318 319 320 321 322 324 325 326 327 328 329 330 330 331 332 333 333 335 335 335 336 336 336 337 336 334 335 336 335 336 339 337 334 333 333 334 336 339
321 324 325 323 321 321 328 325 322 322 317 318 317 317 321 323 318 314 315 314 314 313 313 313 312 315 314 308 308 307 306 309 308 307 306 304 303 302 303 302 302 302 302 302 302 302 302 302 302 302 302 302 303 303 304 305 305 307 309 311 313 314 316 317 318 320 321 323 323 324 325 326 327 329 330 330 331 333 334 334 335 335 335 335 334 335 334 334 336 337 336 334 333 333 334 335 337
321 324 327 332 333 331 334 327 322 323 318 313 316 318 318 321 318 315 316 314 314 314 313 311 310 318 314 309 312 307 304 307 306 306 304 303 302 302 302 301 302 301 301 301 300 300 300 299 299 298 298 298 299 299 300 300 301 302 303 304 305 307 309 311 312 315 317 318 319 320 321 322 323 325 327 328 329 330 331 332 333 334 334 334 334 334 334 335 335 336 336 335 335 335 334 334 335
318 320 324 331 335 333 332 321 317 318 318 317 316 318 318 318 316 315 316 314 314 314 312 311 310 315 313 309 312 307 304 305 305 305 303 303 301 301 301 301 302 301 300 298 298 298 298 298 297 297 297 297 297 297 298 298 298 299 299 300 301 302 303 304 306 308 311 313 315 316 317 319 320 321 323 325 327 327 328 329 330 331 332 333 333 334 334 334 334 335 336 334 333 334 334 334 333
318 321 324 330 332 328 323 317 319 320 316 318 317 317 316 313 315 315 317 316 313 314 311 311 310 311 311 309 309 305 304 304 303 304 303 302 301 300 300 300 300 299 298 297 297 297 297 297 296 297 296 297 297 297 297 297 297 297 297 298 298 299 299 300 300 302 304 306 308 310 312 314 316 318 319 320 322 323 324 325 326 328 329 331 332 333 333 333 333 333 334 333 331 331 333 333 332
325 328 330 335 331 324 321 320 323 322 317 320 318 317 315 312 316 314 315 315 311 314 310 310 313 310 308 309 309 305 302 303 302 303 303 302 301 299 299 299 299 298 297 297 297 296 297 296 296 296 296 297 296 297 297 297 297 297 297 297 297 297 298 298 298 299 299 301 302 304 306 308 311 313 315 315 316 318 320 321 323 324 325 328 329 330 331 332 333 333 332 333 333 332 332 332 330
325 330 341 341 329 324 326 324 320 324 325 322 316 314 314 311 315 315 315 314 312 315 312 310 312 310 309 309 308 303 300 302 302 302 302 301 300 299 298 297 297 297 297 297 296 296 296 296 296 296 296 296 296 296 296 296 296 296 297 296 297 297 297 297 297 298 297 298 298 299 300 302 304 305 308 310 311 312 314 316 318 320 321 323 325 327 328 329 330 331 331 331 332 332 331 330 329
330 334 349 335 321 323 323 322 319 324 327 322 315 311 310 311 315 315 316 315 313 316 311 307 308 310 312 308 306 302 300 301 301 301 301 301 300 299 298 297 297 296 296 296 296 295 295 296 295 295 295 295 295 295 295 296 296 296 296 296 296 296 296 297 297 297 297 297 297 297 298 298 298 299 301 302 304 306 308 310 312 313 315 317 320 322 323 324 326 327 328 329 330 330 331 331 330
332 337 348 329 316 323 322 320 319 320 321 321 317 312 311 312 313 312 313 315 314 313 307 303 306 312 311 306 306 302 300 300 300 300 300 301 300 298 297 297 297 296 296 295 295 295 295 295 295 295 295 295 295 295 295 295 295 295 296 295 296 296 296 296 296 296 297 297 297 297 297 297 297 297 297 298 299 300 301 303 305 306 308 310 313 316 318 320 321 323 324 326 327 329 330 331 331
323 332 342 331 319 321 320 318 321 322 323 322 314 312 313 308 308 310 312 316 312 305 303 303 304 311 311 309 311 303 300 300 299 300 299 300 299 298 297 296 297 296 296 295 294 294 295 295 295 295 294 294 294 294 294 294 295 295 295 295 295 295 295 295 295 296 296 296 296 297 296 297 297 296 297 297 296 296 297 298 299 300 301 303 306 309 311 314 317 319 320 322 324 326 327 329 330
324 335 342 334 322 318 318 318 321 322 323 322 312 311 314 307 306 310 306 307 308 302 303 305 302 305 307 308 309 302 299 300 299 298 298 299 298 297 297 296 296 296 296 295 294 294 295 295 294 295 294 294 294 294 294 294 294 294 294 295 295 295 295 295 295 295 295 295 296 296 296 296 296 296 296 296 296 296 296 296 296 296 297 298 300 302 304 308 311 314 316 318 319 322 324 326 328
327 340 345 333 324 321 318 318 319 322 324 319 310 310 315 310 305 304 300 302 306 303 302 302 298 299 301 302 300 299 299 299 298 298 297 297 297 296 296 295 295 295 295 294 294 294 294 295 294 294 294 294 294 294 294 294 294 294 294 294 294 294 294 294 295 295 295 295 295 295 295 295 295 295 295 295 295 295 295 295 295 295 295 296 296 297 298 301 304 307 311 313 316 318 320 322 325
335 339 336 324 322 323 320 321 317 319 322 316 312 312 315 314 307 302 302 304 303 302 301 300 298 297 297 297 297 298 299 297 297 297 296 296 296 296 295 295 295 295 295 294 293 294 294 294 294 294 294 294 294 294 294 294 294 294 294 294 294 294 293 294 294 294 294 295 295 295 294 294 294 294 294 294 294 294 294 294 294 294 294 295 295 295 295 296 298 300 303 307 311 313 315 318 321
337 336 327 319 326 324 318 321 317 315 318 315 313 311 312 314 310 304 307 308 303 304 304 300 300 298 297 296 296 297 297 297 297 296 296 296 295 295 295 295 294 295 294 293 293 294 294 294 294 294 294 294 293 293 293 293 293 293 293 293 293 293 293 293 293 293 293 294 294 294 294 294 294 294 294 294 294 294 294 294 294 293 293 294 294 294 294 295 295 296 298 300 303 307 310 312 315
326 327 322 321 330 325 316 319 318 314 314 316 314 309 310 310 308 306 309 310 304 307 308 303 303 300 298 297 295 296 296 296 296 296 296 295 295 295 295 295 294 294 294 293 293 294 293 293 294 294 294 294 293 293 293 293 293 293 293 293 293 293 293 293 293 293 293 293 293 294 294 294 294 294 294 294 294 294 294 294 294 293 293 293 293 294 294 294 294 295 295 296 298 301 303 305 308
318 320 320 321 323 319 317 318 317 315 312 316 316 310 311 308 306 307 309 310 308 307 307 307 307 301 298 298 294 294 295 295 295 294 294 294 295 294 294 294 293 294 293 293 293 293 293 293 293 294 294 294 293 293 293 293 293 293 293 293 293 293 293 293 293 293 293 293 293 293 293 294 294 294 294 293 294 293 294 294 293 293 293 293 293 293 294 294 294 294 295 295 296 297 298 300 301
314 315 316 319 318 314 317 318 315 315 311 315 315 312 312 307 306 308 308 312 313 308 305 305 304 300 298 297 294 293 292 293 293 294 294 294 294 294 294 294 293 293 293 293 293 293 293 293 293 293 293 293 293 293 293 292 292 293 292 293 293 293 293 293 293 293 293 293 293 293 293 294 293 293 293 293 293 293 293 293 293 293 293 293 293 293 293 294 294 295 295 295 295 295 296 297 298
314 314 313 317 317 313 315 317 316 313 312 316 315 312 310 308 309 309 307 311 312 305 302 302 300 298 296 295 293 294 294 291 292 293 294 294 294 294 293 293 293 292 292 292 292 293 292 293 293 293 293 293 293 292 292 292 292 292 292 292 292 292 292 292 293 293 293 293 293 293 293 293 293 293 293 293 293 293 293 292 293 293 293 293 292 293 293 293 294 295 296 296 295 295 295 296 296
316 315 314 315 313 313 315 315 317 314 313 314 311 309 310 311 311 307 307 308 307 300 296 297 296 294 294 294 293 293 293 291 292 294 294 294 294 293 293 293 293 292 292 292 292 292 292 292 292 292 292 292 292 292 292 292 292 292 291 291 291 291 292 291 291 292 292 293 293 293 293 293 293 292 292 292 292 292 292 292 292 292 292 292 292 293 293 293 294 295 296 296 296 295 295 295 296
318 314 315 315 312 315 317 315 317 316 314 309 307 310 311 311 307 305 309 308 303 298 296 295 294 294 293 294 294 293 292 291 292 293 292 293 293 293 293 292 292 292 291 292 292 292 292 292 292 292 292 292 292 291 291 291 291 291 291 291 291 291 291 291 291 291 291 292 293 293 293 292 292 292 292 291 292 292 292 292 292 292 292 292 292 292 293 293 293 294 295 296 297 296 296 295 296
315 314 316 316 313 315 315 313 316 315 311 308 308 312 311 306 305 306 309 305 300 297 297 296 295 295 295 294 294 293 292 291 291 292 292 292 292 292 292 292 291 291 291 291 292 292 292 292 291 291 291 291 291 291 291 291 291 291 291 290 290 290 290 290 290 290 291 291 292 292 292 292 292 292 291 291 291 291 291 291 291 292 292 292 291 292 292 293 293 294 294 296 297 297 297 296 296
313 314 315 314 311 312 311 311 314 311 308 307 308 312 310 304 305 309 306 299 296 298 297 295 295 296 294 294 293 291 291 291 292 292 292 292 291 291 292 291 291 291 291 291 291 291 292 291 291 291 291 291 291 291 291 291 291 291 291 290 290 290 290 290 290 290 291 291 291 291 291 291 291 291 291 291 291 290 290 290 290 290 291 291 291 291 291 292 293 294 294 295 296 297 297 297 297
311 312 313 312 312 311 308 311 311 309 308 309 308 310 310 305 306 311 305 296 296 299 297 294 295 295 293 294 294 291 290 292 292 292 292 292 291 291 291 291 291 291 291 291 291 291 291 291 291 290 291 291 291 291 291 291 291 291 290 290 290 290 289 290 290 290 290 291 291 290 290 290 290 290 290 289 289 289 289 289 289 289 289 289 290 290 290 291 292 292 293 294 295 296 297 297 298
310 311 312 314 320 315 308 310 309 308 310 310 310 310 311 309 309 309 301 295 295 297 296 294 294 294 294 294 294 293 291 291 292 291 292 292 291 291 291 291 291 291 291 291 291 291 291 290 290 290 290 290 290 291 291 291 291 290 290 290 289 289 289 289 289 290 290 290 290 290 290 290 289 289 289 289 289 289 289 289 289 289 288 288 288 289 289 290 290 291 291 292 294 295 296 297 298
310 310 312 318 325 320 309 309 309 308 310 310 310 314 315 314 312 307 297 294 296 297 296 294 294 294 294 294 293 294 291 290 291 291 292 291 291 291 291 291 291 291 291 291 291 291 291 290 290 290 290 290 290 290 290 290 290 290 289 289 289 289 289 289 289 289 289 289 290 290 290 289 289 289 288 289 289 289 289 288 288 288 288 288 288 288 288 288 289 290 291 292 292 294 295 297 298
313 310 318 322 320 324 317 310 311 309 309 308 309 314 315 314 315 307 296 294 298 299 297 294 294 294 293 293 293 294 292 290 291 292 291 291 291 291 291 291 291 291 291 291 291 291 290 290 290 290 290 290 290 290 290 289 289 289 289 289 288 288 288 288 289 289 288 289 289 290 290 289 289 288 288 287 287 287 287 287 287 287 287 287 287 287 287 287 288 289 291 293 293 293 294 295 297
319 313 324 328 317 325 324 310 311 311 308 307 309 315 314 311 313 305 295 294 297 300 298 294 294 293 293 293 292 293 293 290 290 291 291 290 290 290 290 291 291 291 291 291 291 290 290 290 289 289 289 289 289 289 289 289 289 288 288 288 288 287 287 288 288 288 288 289 289 290 289 289 288 288 287 287 286 286 286 286 286 286 286 285 285 285 286 286 287 287 289 292 294 294 295 295 296
327 316 320 330 319 319 319 310 310 310 309 308 308 314 314 312 312 302 294 294 296 298 298 295 294 293 292 292 292 292 293 292 290 290 290 290 290 290 290 290 291 291 291 291 291 290 290 289 289 289 289 289 289 289 288 288 288 288 288 287 287 287 287 287 287 288 288 288 289 289 289 288 288 288 287 287 286 286 286 285 285 285 285 284 284 284 285 285 286 286 287 289 292 294 295 296 296
331 320 317 324 318 313 315 313 310 307 309 311 309 311 311 311 311 304 296 294 296 297 297 297 294 293 293 292 292 292 292 293 291 290 290 290 289 290 290 290 290 290 291 291 290 290 289 289 289 288 288 288 288 288 288 288 288 287 287 287 287 287 287 287 287 287 288 287 288 288 288 288 288 288 288 287 287 287 287 286 286 286 285 284 283 283 284 285 285 286 286 287 288 291 293 295 296
324 321 318 318 315 311 313 313 310 306 308 310 309 310 309 308 308 308 302 295 296 298 297 297 295 293 293 292 292 292 292 292 291 290 290 289 289 289 289 290 290 290 290 290 290 289 289 289 288 288 288 288 288 287 287 287 287 287 287 287 287 287 287 287 287 287 287 287 288 288 288 288 288 288 288 288 287 287 287 287 287 287 286 286 285 284 284 284 285 285 286 286 287 288 290 293 295
317 318 317 315 313 310 310 310 308 305 306 308 307 307 308 307 306 308 305 296 295 297 296 296 296 294 293 292 293 292 292 292 290 290 290 289 289 289 289 289 290 290 290 290 290 289 289 289 288 288 288 287 287 287 287 287 287 287 287 287 287 287 287 287 287 286 287 287 287 288 288 288 288 288 288 287 287 287 286 286 286 287 287 286 285 284 284 284 285 285 285 286 287 287 289 291 294
311 313 313 312 311 309 309 308 306 305 306 309 308 306 306 306 306 306 306 301 297 297 295 296 295 294 294 293 293 292 292 292 291 290 290 289 289 289 289 289 289 289 290 290 289 289 289 289 288 288 288 287 287 287 287 287 287 287 287 286 286 286 287 287 287 287 286 286 287 287 287 288 288 288 288 287 286 286 286 285 285 285 285 285 284 283 284 284 284 284 284 285 286 288 289 291 294
307 310 309 310 310 309 308 305 307 306 306 310 310 308 307 305 306 306 307 306 303 299 298 298 296 295 294 294 293 293 292 291 291 290 288 288 288 288 288 288 288 289 289 289 289 289 289 288 288 288 287 287 287 287 286 286 286 286 286 285 285 286 286 286 286 287 286 287 287 287 287 288 288 287 287 286 286 285 284 284 284 283 283 282 282 282 283 283 282 282 283 284 286 288 289 291 293
309 310 309 311 310 311 311 307 308 308 305 310 311 307 307 306 306 306 306 307 305 303 302 301 299 297 296 295 294 293 293 292 292 290 287 287 288 287 287 287 288 289 289 289 288 289 289 289 288 288 287 287 287 286 286 286 286 285 285 285 284 285 285 285 285 285 285 286 286 287 287 287 287 286 286 285 284 284 283 283 282 282 282 281 281 281 281 281 281 281 282 284 286 289 290 291 293
311 310 310 313 311 312 317 311 309 308 306 307 308 306 306 307 306 306 306 306 306 305 304 303 301 300 298 296 295 293 293 292 291 290 288 286 287 287 286 287 288 288 289 289 288 288 289 288 288 287 287 287 286 286 286 285 285 285 285 284 284 284 284 284 284 284 284 284 285 286 285 285 285 285 285 284 284 283 283 282 282 281 282 281 281 280 280 280 280 281 282 283 285 288 290 291 292
317 313 310 313 312 311 314 312 309 310 309 305 307 310 311 312 309 308 307 304 304 305 304 303 300 299 299 297 296 294 293 292 291 291 288 286 286 286 286 287 287 288 288 289 288 288 288 288 288 287 287 286 286 285 285 285 285 285 284 284 284 284 284 284 283 283 283 283 284 284 284 283 283 283 283 283 282 282 281 281 281 281 281 281 280 280 280 280 280 280 281 282 283 285 287 289 291
321 319 312 311 312 310 310 312 310 315 317 307 308 315 316 315 313 312 309 307 308 306 305 306 302 298 298 298 297 295 294 293 291 290 288 286 285 285 286 287 287 288 288 288 288 288 288 288 287 287 287 286 286 285 285 285 284 284 284 284 283 283 283 283 283 283 283 283 283 283 283 283 283 283 283 283 282 281 281 281 280 280 280 280 280 279 279 280 280 280 281 281 282 283 285 287 288
318 317 312 309 308 308 310 311 310 317 319 308 308 317 316 314 315 316 314 311 312 309 307 307 303 300 299 297 296 295 293 292 291 290 288 286 285 285 285 286 287 288 288 288 288 288 288 287 287 287 286 286 285 285 284 284 284 284 283 283 283 282 282 282 282 282 282 282 282 283 283 283 283 283 283 282 282 282 281 281 280 280 280 279 279 279 279 279 280 280 281 281 281 282 284 286 287
320 313 312 312 309 310 310 308 308 312 312 306 307 312 312 312 312 313 311 310 311 309 308 307 303 302 300 297 296 295 293 292 291 290 288 287 285 284 285 286 287 288 288 288 288 288 288 287 287 286 286 286 285 285 284 284 284 284 283 283 282 282 282 282 281 281 281 281 281 282 282 282 282 282 282 282 281 281 280 280 280 280 279 279 279 279 279 279 279 280 281 281 281 282 282 284 285
317 308 308 309 307 310 310 307 307 308 308 310 308 306 310 314 311 307 306 308 312 312 315 313 309 306 301 298 296 295 294 292 290 290 288 287 285 285 286 287 288 288 288 287 287 287 287 287 286 286 286 285 285 285 284 284 284 283 283 282 282 282 281 281 281 280 280 280 280 281 281 281 281 281 280 280 280 280 280 280 280 279 279 279 279 278 278 278 279 280 280 281 281 281 281 282 283
309 305 308 310 310 310 309 309 310 311 313 316 312 307 312 317 313 308 305 308 313 316 316 314 312 308 303 300 297 294 293 291 290 289 288 286 285 286 287 287 288 288 287 287 287 286 287 286 286 285 285 285 285 285 285 284 284 283 283 282 281 281 281 280 280 280 280 280 280 280 280 279 280 279 279 279 279 279 279 279 279 279 279 278 278 278 278 278 278 279 279 280 280 280 281 282 283
304 307 313 315 314 311 310 311 312 315 318 318 313 308 311 318 315 310 309 312 317 319 316 313 313 311 306 301 297 294 293 291 289 288 286 285 285 286 287 287 287 287 286 286 286 286 286 286 285 285 285 285 285 285 284 284 284 283 282 281 281 280 280 280 279 279 279 279 279 279 279 279 279 279 278 278 279 279 279 279 278 278 278 278 278 278 278 278 278 278 278 279 280 280 281 281 282
307 314 317 318 319 317 317 318 315 318 319 318 311 305 307 315 313 310 313 313 312 316 317 315 316 314 308 303 298 294 292 290 288 287 286 285 285 285 285 285 286 286 286 285 285 286 285 285 285 285 285 285 285 284 284 284 283 283 282 281 280 280 279 279 279 279 278 278 278 278 278 278 278 278 278 278 278 278 278 278 278 277 277 277 277 277 277 277 277 277 278 278 279 280 280 280 281
309 314 318 319 322 323 324 322 318 320 319 311 306 306 307 310 310 310 312 312 310 312 313 313 313 310 306 303 298 293 291 289 287 286 286 286 286 284 283 284 285 285 285 285 285 285 285 285 285 285 285 285 284 284 284 283 283 282 281 280 280 279 279 278 278 278 278 278 278 277 277 277 277 277 277 277 277 277 277 277 277 277 277 277 277 277 277 277 277 277 277 278 278 279 279 279 279
307 313 319 320 323 326 327 322 317 318 318 308 302 307 311 310 312 310 308 309 310 309 309 308 307 303 301 301 298 293 290 288 287 286 286 286 285 284 283 284 284 285 285 285 285 285 285 285 285 285 285 284 284 283 283 283 283 282 281 280 279 278 278 278 277 277 277 277 277 277 277 276 276 276 276 277 276 276 276 277 277 277 277 277 277 277 277 277 277 277 277 277 277 277 278 278 279
307 313 317 319 326 329 325 324 320 317 319 311 303 309 316 314 313 311 309 309 308 306 306 302 299 296 296 297 296 293 289 287 286 285 286 285 284 283 283 283 284 285 286 285 285 285 285 285 284 284 284 284 283 283 282 282 282 282 281 280 279 278 277 277 277 277 277 276 276 276 276 276 276 276 276 276 276 276 276 276 276 276 276 277 277 277 277 277 277 277 277 277 277 277 277 278 279
309 311 314 317 322 322 318 320 319 315 316 313 307 312 316 311 309 309 311 311 305 303 302 299 297 295 296 296 295 291 288 286 286 285 285 285 283 283 283 283 284 285 286 285 285 285 284 284 284 283 283 283 282 282 282 281 281 281 280 279 278 277 277 277 277 276 276 276 275 275 275 275 275 275 275 275 276 276 276 276 276 276 276 277 277 277 276 276 276 276 276 276 276 277 277 278 279
310 308 313 314 312 316 320 318 312 310 314 314 312 313 311 309 310 306 305 307 304 302 301 299 297 295 297 298 294 290 287 286 285 285 285 284 283 282 282 283 284 285 285 285 284 284 284 283 283 283 282 282 282 282 281 280 280 280 279 278 277 277 277 276 276 275 275 275 274 274 275 274 275 275 275 275 275 275 275 276 276 276 276 276 276 276 276 276 276 275 276 276 276 276 277 278 278
311 313 314 309 307 312 318 318 315 313 314 315 314 312 309 310 310 305 304 308 308 306 304 300 296 295 297 298 293 289 287 286 285 285 284 284 283 282 282 283 285 285 285 285 284 284 283 283 282 282 282 282 281 281 280 280 279 278 278 278 277 277 276 275 275 275 274 274 274 274 274 274 274 274 274 274 275 275 275 275 276 276 276 276 276 276 276 276 275 275 275 275 276 276 276 276 277
308 312 307 307 313 314 312 314 317 316 315 317 316 312 310 310 311 310 310 311 311 310 307 300 297 297 297 295 292 289 287 285 285 285 284 284 283 282 282 283 284 285 284 284 283 283 283 282 282 281 281 281 281 280 279 279 278 277 277 277 277 276 275 274 274 274 273 273 273 273 273 273 273 273 274 274 274 274 275 275 275 275 276 276 276 276 276 275 275 275 275 275 275 275 275 276 276
301 303 301 306 313 315 313 312 315 317 314 315 315 312 311 313 317 318 314 313 313 314 311 304 300 299 297 294 292 289 287 286 285 284 284 284 283 281 282 283 284 284 284 283 283 282 282 282 281 281 281 280 280 279 278 278 277 276 276 276 276 275 274 274 273 273 273 272 272 272 272 272 273 273 273 273 274 274 274 274 275 275 275 275 275 275 275 275 275 274 275 275 275 275 275 276 276
303 304 305 305 305 309 313 310 310 315 315 315 316 313 311 313 318 319 316 315 315 316 315 309 305 302 296 293 292 289 287 286 285 284 284 284 282 281 282 283 284 284 283 283 282 282 282 281 281 280 280 279 278 278 277 276 275 275 275 276 275 274 274 273 273 272 272 272 272 272 272 272 272 272 272 272 273 273 273 274 274 274 275 275 274 274 274 274 274 274 274 274 274 275 275 275 276
306 307 308 306 304 309 313 310 309 310 312 316 317 314 311 311 315 317 316 317 317 317 316 310 309 306 296 291 291 289 287 286 285 284 284 283 282 281 281 282 283 283 282 282 282 281 281 281 280 279 278 278 277 276 275 275 274 275 274 274 274 273 273 273 272 272 271 271 271 271 271 271 271 271 272 272 272 273 273 273 274 274 274 274 273 273 273 274 274 273 273 273 274 274 275 275 275
Wind_Speed
4 4 3 3 2 3 1 4 2 2 4 3 1 1 2 3 2 2 1 0 1 2 3 2 4 4 4 6 8 6 4 3 4 4 2 3 5 10 11 13 14 13 14 13 13 13 14 16 16 15 15 14 14 13 13 13 13 14 13 12 11 10 8 8 8 9 10 10 10 11 12 13 13 13 13 15 14 13 13 12 11 11 11 12 12 11 11 11 12 13 14 14 15 15 16 17 16
3 3 2 3 2 2 1 3 3 3 5 3 1 2 2 2 1 2 5 2 3 2 2 7 9 8 8 8 7 6 4 2 1 4 1 2 5 11 13 14 15 15 15 14 13 13 14 17 17 16 16 16 16 16 14 14 13 14 14 14 15 14 12 10 9 9 10 11 11 12 12 12 13 13 14 15 15 14 14 13 12 13 13 13 13 13 13 13 13 14 15 15 16 16 17 18 18
2 2 2 3 1 2 1 4 2 1 4 1 3 3 1 1 2 1 4 5 8 8 4 6 7 5 5 5 4 4 1 3 2 1 2 4 3 8 13 14 16 15 14 14 13 13 15 17 17 16 17 16 16 16 15 14 13 13 13 13 14 15 14 13 12 12 12 12 12 12 12 12 13 13 14 14 14 15 16 14 14 15 15 15 15 14 14 14 14 15 16 16 17 18 18 18 19
0 1 0 2 1 3 4 4 2 4 2 2 2 4 2 4 6 3 1 6 8 5 2 3 4 2 4 5 2 2 2 2 3 0 1 6 3 6 12 15 15 15 15 15 15 16 17 18 17 17 17 17 17 16 16 15 14 14 13 12 13 13 13 13 13 13 13 13 12 12 12 12 12 13 13 14 14 14 15 15 14 16 16 16 17 16 15 15 15 16 16 16 18 19 19 20 20
1 1 1 1 2 2 3 3 2 4 2 4 2 3 5 5 7 5 1 3 4 2 2 3 3 2 3 3 0 2 1 1 3 4 4 4 5 8 13 15 15 16 17 18 18 19 20 20 19 19 18 19 18 18 17 16 15 15 14 14 13 13 13 12 12 12 13 13 12 13 12 12 12 13 13 14 14 14 15 16 16 17 17 17 18 18 17 16 16 16 16 17 18 20 21 21 21
2 3 4 4 3 1 3 2 2 2 4 4 2 4 6 5 7 7 3 1 0 0 1 2 4 3 2 1 1 2 2 1 2 4 5 5 8 11 14 15 16 17 19 20 20 21 22 22 21 21 20 20 20 20 19 19 17 16 15 15 14 14 14 14 13 13 13 13 13 13 13 13 13 14 15 15 15 14 15 16 17 18 18 18 18 19 18 18 17 17 17 18 19 20 20 21 21
2 2 4 5 2 2 3 3 3 2 2 3 2 3 4 5 6 8 5 3 2 3 3 2 5 7 2 1 1 1 1 2 3 5 6 8 10 12 14 14 15 17 18 19 20 21 22 22 22 21 21 21 20 20 20 19 19 18 17 16 15 14 14 14 14 14 14 13 14 14 14 14 14 14 15 16 15 15 16 16 16 17 18 18 19 19 19 19 19 18 19 19 20 19 20 20 22
4 1 1 3 2 4 4 3 3 2 1 2 3 4 3 5 7 7 4 3 2 0 2 3 4 5 0 1 2 1 4 5 7 9 9 10 11 13 13 13 15 16 17 17 18 19 20 21 21 20 20 20 20 19 19 19 18 18 17 17 16 15 15 14 14 14 14 14 14 14 14 15 14 14 15 15 15 15 15 15 15 16 17 18 19 19 19 19 19 20 20 20 21 21 21 20 22
5 3 0 3 2 3 3 2 1 2 3 4 4 3 1 4 7 6 3 2 3 5 5 5 1 2 2 3 1 3 3 7 10 11 11 12 12 12 12 12 14 15 15 16 17 17 18 19 19 19 19 20 20 20 19 19 18 17 17 16 16 16 15 15 15 14 14 14 14 14 14 14 14 14 15 14 14 14 14 14 14 15 16 16 18 19 20 20 20 21 20 20 21 22 22 22 22
4 4 1 3 3 3 3 1 1 2 4 4 5 4 3 4 5 5 5 4 4 7 6 3 3 3 6 5 2 2 4 9 11 12 12 13 12 12 12 12 13 13 14 15 16 16 17 17 18 19 19 20 20 20 20 20 20 19 18 17 16 16 15 15 15 15 15 14 14 14 13 13 14 13 14 14 14 14 14 14 14 14 15 16 17 18 20 20 21 22 21 21 21 22 23 22 23
2 4 2 4 4 2 2 3 3 3 4 4 4 4 5 5 5 4 4 4 3 5 4 2 4 5 6 2 3 2 7 11 12 13 12 13 13 12 12 12 12 13 14 15 15 16 17 17 18 18 19 19 19 19 19 20 20 20 19 19 18 18 17 16 15 15 15 15 15 14 14 14 14 14 14 14 15 15 15 15 15 14 14 14 16 16 17 18 20 21 22 23 23 23 23 23 24
2 3 4 4 3 3 3 4 4 4 5 4 2 3 2 6 5 4 5 5 4 4 4 3 3 5 6 2 3 3 8 12 13 13 13 13 12 12 12 12 12 12 13 14 15 16 17 17 18 19 19 19 18 18 18 19 19 19 19 19 19 18 18 18 17 16 15 15 15 15 15 15 15 15 15 15 15 16 16 16 16 16 15 15 15 16 16 16 18 19 21 23 24 24 24 24 25
3 2 5 3 2 2 3 4 3 3 5 3 4 1 3 5 3 7 8 6 6 6 4 4 5 5 4 3 2 2 8 14 15 14 13 13 12 11 11 11 11 12 13 13 14 16 16 17 18 18 19 18 18 18 18 18 18 18 18 18 18 18 18 18 18 17 17 16 16 16 16 16 17 17 17 17 17 17 17 17 18 18 18 18 18 18 18 18 18 19 20 21 23 24 25 26 26
3 3 5 3 1 3 4 3 2 2 3 5 3 1 2 2 2 5 8 6 6 6 2 2 6 5 2 2 2 3 10 16 16 14 14 14 13 12 11 10 10 11 12 13 14 16 16 17 18 18 18 19 19 19 19 19 19 18 18 18 19 19 19 18 18 17 17 17 17 17 17 17 17 18 18 18 19 19 19 19 19 19 20 21 20 20 20 21 21 21 21 21 22 23 25 26 26
3 2 5 4 1 1 4 2 3 4 5 5 3 3 4 1 2 3 5 7 6 3 1 0 3 2 3 6 5 7 15 19 17 16 15 14 14 12 11 10 10 11 12 13 14 15 15 16 17 18 19 20 20 20 20 20 20 19 19 19 19 19 19 19 18 18 18 17 17 18 18 19 19 19 19 20 20 21 21 21 21 21 21 22 22 22 22 22 22 23 22 22 23 23 24 25 26
3 4 5 3 2 2 4 3 3 3 5 5 3 4 5 0 2 3 3 4 3 1 2 1 0 1 4 6 5 11 21 21 18 17 16 15 14 12 11 11 11 11 12 13 15 15 15 16 16 18 18 20 20 20 20 20 20 20 19 19 19 19 19 19 19 19 19 19 19 19 19 20 20 21 21 22 22 22 23 22 23 23 23 23 23 23 23 23 24 24 24 24 24 24 25 25 25
3 4 5 2 3 3 4 5 4 4 5 4 3 4 6 1 0 1 1 4 4 1 3 2 2 2 3 2 3 18 24 20 19 17 16 15 13 12 11 10 11 12 13 13 15 14 15 15 16 17 18 18 18 19 19 19 19 19 19 19 20 20 20 20 19 19 19 20 20 20 21 21 22 22 23 23 24 24 24 24 24 24 24 24 24 24 23 23 24 25 25 25 25 25 25 25 25
4 3 3 1 3 4 5 7 7 4 3 5 6 5 6 4 3 3 1 5 3 1 2 2 4 3 0 3 9 18 22 19 19 17 15 14 12 11 9 9 10 12 13 13 14 14 14 15 16 16 17 17 17 18 18 18 18 18 18 18 19 20 21 21 21 21 21 20 21 21 22 22 22 23 24 24 24 25 25 26 26 26 26 25 25 25 24 24 24 24 25 25 25 26 26 25 25
4 4 3 1 5 4 5 7 6 2 2 5 4 3 4 5 5 5 3 1 0 3 2 4 3 2 1 5 10 14 18 18 17 16 15 13 12 10 9 9 10 11 12 13 13 13 13 14 14 14 15 15 16 17 17 17 17 17 17 17 18 19 20 21 22 22 22 22 22 22 22 23 23 23 24 24 25 25 26 27 28 28 28 28 27 27 26 25 25 25 25 25 26 26 27 26 26
2 4 3 4 6 4 3 6 6 3 2 4 3 1 2 4 5 4 4 4 3 6 6 3 5 7 6 7 9 12 15 16 16 16 14 13 11 9 9 9 10 11 11 12 11 11 12 12 13 13 13 14 15 16 17 17 17 17 16 17 18 18 19 20 21 22 22 22 22 23 23 23 23 24 24 25 26 27 27 28 29 30 31 31 31 30 29 27 27 27 26 26 27 27 27 27 28
1 4 3 5 3 2 4 6 5 3 2 3 2 2 2 2 3 3 6 5 5 9 10 11 11 13 12 9 10 13 14 14 15 14 13 12 10 9 9 9 9 10 10 9 10 10 10 11 11 12 12 13 14 15 16 16 16 16 16 17 17 17 18 19 20 21 21 22 22 22 22 23 23 24 25 26 27 28 29 30 31 32 32 33 33 33 32 30 30 29 29 29 29 29 29 29 29
2 1 3 5 3 1 5 4 4 3 4 4 3 3 3 3 2 4 9 7 7 6 8 11 9 12 15 12 12 12 11 12 13 13 13 12 11 9 9 8 8 9 8 8 9 9 9 10 10 10 11 12 13 14 15 15 15 16 16 16 16 16 17 17 18 19 20 20 21 21 21 22 23 24 25 26 28 29 30 31 32 32 33 33 34 34 33 32 31 31 31 31 31 31 31 30 30
1 1 2 4 4 2 3 1 3 4 6 4 4 4 3 4 4 4 10 12 7 2 6 7 6 9 13 12 11 10 9 10 12 14 13 12 11 9 9 8 8 8 8 8 8 8 8 8 9 9 9 10 11 12 12 12 13 14 14 15 16 16 16 17 17 18 19 19 20 20 21 22 23 24 25 26 27 28 30 30 31 31 32 33 33 33 33 32 31 31 31 32 32 32 32 32 31
4 1 2 2 4 4 3 0 1 4 6 5 3 3 5 7 5 1 9 14 4 3 3 5 9 13 13 10 9 9 10 11 12 14 11 11 10 9 9 8 8 8 8 8 8 8 7 8 8 8 8 9 9 10 10 10 11 11 12 13 14 15 15 16 17 18 18 18 19 19 20 21 22 23 24 25 26 27 28 30 30 31 31 32 32 31 32 32 32 31 31 32 32 33 33 33 33
4 2 3 1 3 6 4 2 2 4 5 2 5 4 5 7 3 0 11 12 1 2 3 7 10 12 10 9 9 8 9 11 13 12 11 10 10 10 9 8 9 8 8 9 8 8 7 7 7 7 7 7 7 8 8 9 9 10 11 12 13 13 14 15 16 17 18 18 18 19 20 20 21 22 23 23 24 25 27 28 30 31 32 32 31 31 30 31 32 32 32 32 32 32 32 33 33
1 4 3 2 3 5 3 3 4 4 3 3 6 5 5 2 1 5 10 7 3 4 6 7 9 10 9 8 8 8 8 11 14 13 12 11 10 11 11 10 10 9 9 9 8 7 7 7 6 6 5 5 5 6 7 8 9 9 10 11 12 12 13 14 15 15 16 16 17 18 18 19 20 20 21 22 23 25 25 27 28 30 31 31 31 31 30 30 31 32 32 32 32 31 31 31 33
2 2 3 4 3 5 2 4 5 2 2 4 6 6 4 2 2 5 5 3 6 7 6 6 9 10 9 7 7 9 9 13 16 14 12 11 11 12 13 12 10 9 9 8 7 7 6 6 5 5 4 4 4 5 6 7 8 9 9 10 11 11 13 13 13 14 14 15 16 16 17 17 17 18 19 21 23 24 25 26 27 28 29 30 30 31 31 31 31 31 30 30 31 31 31 30 30
2 0 3 5 4 4 2 3 4 1 2 6 6 5 3 2 2 6 3 5 6 8 8 7 8 8 8 7 7 8 10 14 15 13 13 13 13 14 13 12 10 9 9 8 7 7 6 5 4 4 4 4 4 5 6 7 7 8 9 9 10 11 12 12 12 12 12 14 14 15 16 17 17 18 19 20 22 23 25 26 27 27 27 28 28 30 31 31 32 32 31 30 30 30 31 30 29
1 2 2 7 7 3 2 2 3 2 2 5 6 4 4 5 8 6 2 6 5 7 8 7 8 7 6 7 6 6 10 13 13 12 15 15 15 15 13 12 10 10 9 8 7 7 5 4 4 4 4 4 4 5 6 6 7 8 8 9 10 10 11 11 11 11 12 12 13 15 16 18 20 21 21 22 23 24 26 27 28 29 28 28 28 29 29 29 31 32 33 33 32 31 30 30 29
0 3 2 4 7 3 2 1 0 2 2 3 3 4 6 9 12 5 5 8 7 6 8 7 7 6 6 7 6 6 9 11 11 14 15 15 15 15 13 12 11 11 10 9 8 7 5 3 3 3 3 3 4 4 5 5 6 7 8 8 9 10 10 10 10 11 11 12 14 16 18 21 22 22 23 24 25 26 27 28 29 29 29 29 29 28 28 28 28 30 32 33 34 34 32 31 29
1 1 2 2 3 4 5 0 3 4 1 1 3 3 8 9 9 6 7 9 10 10 10 8 8 7 7 7 7 7 8 10 13 15 15 15 17 15 14 13 12 12 10 9 9 7 4 3 3 3 3 2 3 3 4 5 6 7 7 8 8 9 10 10 10 11 12 13 15 17 20 22 23 24 25 25 26 26 26 26 26 27 28 28 28 28 28 28 28 28 28 30 33 34 35 34 31
3 2 3 3 0 5 8 2 5 4 1 2 4 3 9 11 7 4 7 8 10 11 10 9 9 9 8 7 8 7 7 11 15 16 16 17 18 17 16 14 13 12 11 11 10 8 5 5 5 4 3 2 2 3 4 5 6 7 8 8 8 9 9 9 10 11 12 14 16 19 21 23 24 26 26 26 26 25 25 25 26 26 26 26 26 26 25 26 27 28 27 27 31 33 33 35 34
4 1 3 4 2 4 7 2 3 3 0 0 2 3 7 8 4 2 6 8 9 9 9 10 11 10 10 8 7 7 6 9 12 16 19 19 19 18 17 16 15 13 13 13 11 9 7 7 6 4 3 2 3 3 5 6 7 7 8 8 8 9 10 9 11 12 13 15 17 20 22 23 25 26 27 28 28 28 28 28 29 29 28 27 26 25 24 24 25 27 27 26 28 32 32 32 33
4 2 2 4 3 3 5 4 3 1 2 3 4 5 10 13 6 3 7 9 9 10 11 12 11 10 9 8 8 8 8 8 10 16 21 21 21 20 18 17 16 15 14 14 12 10 9 8 7 4 2 1 3 4 5 6 8 8 9 9 10 11 10 10 11 13 14 15 18 20 22 24 25 27 29 30 31 32 32 32 33 32 32 30 28 26 24 24 23 24 27 28 28 30 32 32 31
4 3 3 4 3 4 5 5 3 1 1 5 4 6 14 19 13 7 8 9 11 13 12 11 10 10 9 9 9 10 10 11 11 17 23 23 22 21 19 18 18 17 16 15 13 11 9 8 6 3 1 1 3 4 6 7 9 10 10 11 11 12 12 12 12 13 14 16 18 21 22 24 25 27 29 31 32 33 34 35 35 35 35 34 33 30 28 26 25 25 28 31 30 29 30 33 32
6 5 4 4 5 6 6 6 5 1 2 7 7 9 13 18 17 11 7 9 12 12 9 8 8 9 10 10 10 11 12 12 13 19 23 23 23 22 20 20 19 18 17 15 13 11 9 8 6 4 2 2 3 5 6 8 10 11 12 12 13 14 13 13 13 14 15 16 19 21 23 24 26 28 29 30 32 33 34 34 35 35 35 35 34 33 31 29 28 28 28 30 32 30 28 29 30
4 4 4 5 6 7 6 4 5 1 1 9 9 9 13 16 19 16 6 8 11 11 9 10 10 10 11 12 13 14 14 11 12 19 22 24 24 22 21 21 19 19 18 16 14 11 9 8 7 5 3 3 4 6 7 9 10 12 13 13 15 16 14 13 14 15 15 17 19 22 23 24 26 28 29 31 31 32 33 33 34 34 33 32 30 29 28 28 27 28 29 29 29 30 28 24 24
3 4 4 5 5 8 8 3 4 2 2 6 7 6 13 16 17 18 8 8 11 11 11 14 13 12 11 13 15 14 10 6 10 16 20 24 24 23 22 21 21 20 20 18 14 11 10 9 8 6 5 4 5 7 8 9 10 11 12 13 15 16 13 13 15 16 16 18 20 22 23 24 26 28 30 31 31 31 31 32 31 30 29 27 26 26 26 27 27 27 28 29 28 28 28 25 23
3 2 2 4 4 5 7 4 4 2 2 5 8 8 14 17 17 20 16 11 11 10 13 15 13 13 13 13 14 12 10 9 10 13 17 23 24 23 22 22 22 22 21 18 14 12 11 9 9 7 6 6 6 8 9 10 10 10 12 13 14 14 12 12 15 16 16 19 21 22 23 24 26 27 28 29 30 30 30 30 29 28 28 26 27 28 27 27 28 26 25 27 30 29 28 27 25
3 3 2 5 4 2 5 4 5 3 2 4 8 11 14 14 14 17 14 8 8 8 12 13 10 12 14 12 12 12 14 14 13 13 13 18 22 22 22 22 23 22 21 18 15 13 12 10 9 8 7 7 7 8 9 10 11 11 12 14 14 13 12 12 14 15 16 19 22 23 24 24 25 26 27 28 28 29 28 28 28 28 28 28 28 29 30 29 28 27 25 25 27 28 27 25 23
3 5 6 6 5 5 6 3 5 4 2 2 6 11 11 7 8 11 5 3 5 6 8 11 9 10 10 8 10 13 15 14 15 14 12 15 19 22 23 24 23 23 22 19 16 14 12 10 9 8 8 8 8 9 10 10 11 12 14 15 15 14 15 15 16 17 19 21 24 25 25 25 25 26 26 26 26 26 26 26 27 27 28 28 28 29 30 29 27 27 25 25 25 25 27 28 25
4 5 9 9 8 7 4 5 6 5 4 3 5 7 9 2 3 8 3 3 6 4 6 12 10 8 8 9 10 11 12 12 13 14 13 15 18 21 23 24 23 24 23 19 16 14 12 10 9 9 9 8 8 9 9 10 11 12 14 15 16 16 17 18 18 21 23 24 25 26 26 26 26 26 27 27 27 27 27 27 27 27 26 27 27 28 29 29 27 26 24 25 25 25 26 29 30
3 4 6 6 4 1 2 4 4 2 3 4 4 1 9 4 3 8 6 5 9 7 8 13 10 7 9 11 10 10 11 11 11 12 13 15 17 20 22 24 25 25 23 19 17 15 13 10 9 9 9 8 8 8 9 10 11 12 13 14 14 14 15 18 20 21 23 24 25 27 27 27 27 28 29 29 30 30 30 29 29 28 27 27 27 28 29 29 28 27 25 25 26 26 26 27 31
3 4 4 5 5 3 2 3 1 4 2 4 1 4 8 9 5 6 4 5 11 12 12 13 10 9 11 11 10 10 12 11 11 12 13 14 18 21 22 25 27 26 22 19 18 16 14 11 10 10 9 7 8 8 8 9 10 12 13 14 15 15 16 19 21 22 23 24 25 27 28 29 29 29 29 30 31 31 30 30 30 30 29 29 28 28 29 29 29 29 28 27 28 27 27 28 30
5 5 5 6 6 4 4 4 2 2 3 5 5 5 4 10 5 2 2 4 9 12 14 13 10 10 11 11 10 11 11 10 11 12 13 14 19 23 25 27 27 25 22 19 18 16 14 12 11 10 8 8 8 8 8 8 9 11 13 14 16 17 18 20 22 23 24 23 25 28 29 30 30 30 30 30 31 31 30 30 31 30 30 30 29 29 30 30 29 29 29 29 30 29 29 29 31
3 5 5 5 5 4 4 3 1 2 3 7 7 7 4 8 4 3 3 3 8 10 11 10 10 9 8 8 9 9 8 8 10 11 12 16 21 24 25 26 25 24 21 18 17 16 15 13 11 10 9 8 9 8 8 9 9 10 13 14 16 18 20 21 23 24 24 24 26 29 29 30 31 31 31 31 31 31 31 32 31 30 30 31 30 30 30 30 29 28 29 30 30 29 28 28 30
4 5 4 5 4 4 4 1 2 2 6 9 7 12 7 6 3 5 4 5 7 8 7 7 9 9 6 6 7 8 8 8 9 9 9 14 20 24 24 23 23 23 20 18 17 16 15 13 12 11 9 9 9 8 8 9 9 11 12 14 16 19 20 22 23 25 25 26 28 30 31 31 32 32 32 31 31 31 32 32 32 31 31 31 30 30 30 30 30 29 29 30 29 28 28 28 30
4 4 4 4 4 4 4 4 4 0 7 6 4 8 8 7 6 4 5 7 6 7 6 7 10 10 5 5 5 7 8 8 8 8 8 11 14 17 20 20 21 20 19 18 17 15 13 12 12 11 10 9 8 8 8 9 10 12 13 15 17 19 20 21 23 25 26 26 28 30 31 32 33 34 33 33 33 32 32 33 32 31 31 30 30 30 31 30 31 30 30 29 29 29 29 28 30
4 4 4 2 4 4 3 3 1 3 7 3 1 4 5 11 11 8 10 10 8 9 8 9 11 10 4 4 6 6 7 8 8 9 9 10 10 13 16 19 20 20 19 18 16 14 13 12 11 12 11 9 8 8 8 10 11 13 14 15 17 19 20 21 22 25 26 26 27 29 31 32 34 35 35 35 35 33 33 33 33 32 32 31 30 31 31 31 31 30 30 30 29 30 31 31 33
5 5 4 3 1 1 3 4 2 5 7 2 3 3 4 9 8 11 16 15 13 11 9 9 9 7 5 5 6 6 7 8 8 9 10 10 10 13 17 19 20 20 19 17 14 13 12 11 10 11 11 9 8 8 8 10 11 13 14 16 17 18 20 21 22 24 26 27 28 29 31 33 34 36 37 37 37 35 34 33 33 33 32 32 32 32 32 31 30 30 30 31 31 31 33 34 36
4 5 5 5 5 4 4 4 4 7 6 3 3 2 4 5 4 6 11 11 9 6 7 7 5 5 5 5 6 7 7 8 7 9 10 10 11 15 18 19 20 20 18 15 13 12 11 10 10 11 11 9 7 8 9 11 12 13 14 16 17 18 19 21 22 24 26 27 29 30 32 33 34 37 38 38 37 35 35 34 33 33 33 32 32 32 33 31 30 30 30 31 32 32 32 34 35
2 3 4 3 4 5 3 3 4 2 5 4 3 4 6 3 4 6 4 6 7 5 6 7 5 3 3 5 6 6 7 8 8 9 10 10 12 16 18 18 19 18 16 14 12 11 10 10 10 10 10 9 8 9 9 11 12 13 15 16 17 18 19 21 24 25 26 28 29 31 33 34 34 36 37 38 37 35 35 35 34 34 33 33 33 33 33 32 31 32 32 32 32 31 32 33 33
2 3 4 4 4 5 2 3 1 4 3 6 2 6 9 3 5 6 2 6 8 6 8 9 6 2 2 6 7 6 7 8 9 10 10 10 12 15 18 18 18 18 16 13 11 10 10 9 10 10 10 9 8 9 10 10 12 14 15 16 18 19 20 22 24 26 27 28 29 30 32 33 34 35 36 36 37 36 35 35 34 35 33 33 34 34 33 33 33 33 33 33 32 31 32 33 32
5 3 5 3 2 4 3 1 3 3 3 6 4 9 13 8 6 2 3 6 9 9 10 8 4 3 6 9 8 7 8 8 9 10 9 9 11 15 18 19 19 18 15 12 10 9 9 9 9 10 9 9 8 9 10 10 12 14 16 17 18 20 21 23 24 26 27 28 29 30 30 32 33 34 35 35 36 36 36 35 34 35 34 34 34 34 34 34 33 33 34 35 34 32 33 33 33
5 3 3 3 3 2 2 2 2 2 3 7 9 12 13 9 6 4 5 9 9 10 10 7 6 8 10 10 8 8 8 8 9 10 9 9 11 15 18 19 18 16 13 11 9 9 9 9 9 9 9 9 9 9 10 11 12 14 16 18 19 20 22 23 24 26 27 28 30 30 30 32 33 33 34 34 35 35 35 35 34 35 35 35 35 34 34 34 33 33 34 35 34 32 33 33 33
2 0 1 1 2 4 3 3 3 3 3 6 11 13 12 7 7 7 10 10 10 10 9 8 10 11 11 10 8 8 9 9 10 10 11 10 11 15 19 19 18 16 13 11 10 9 9 8 9 9 9 9 9 9 10 12 13 15 17 18 20 21 22 24 25 26 27 28 29 30 30 31 32 32 33 33 34 34 35 35 34 35 35 35 34 34 34 34 33 33 33 33 33 31 32 33 32
4 3 3 2 1 2 1 2 3 4 4 4 4 11 15 6 7 8 10 9 10 10 9 9 10 12 11 10 9 9 9 10 10 10 11 10 11 15 18 18 17 15 13 12 11 10 9 9 10 9 9 9 9 10 11 13 14 16 18 19 21 22 23 25 26 27 28 28 29 29 30 31 32 32 32 33 34 34 34 34 34 35 34 34 34 34 34 34 33 33 32 31 32 31 32 33 32
7 8 8 8 6 4 1 5 3 3 4 5 4 8 18 6 7 7 8 8 10 10 10 9 9 11 11 10 10 10 10 11 11 10 11 10 10 14 16 16 15 15 14 13 12 10 10 10 9 9 9 9 9 11 12 14 15 17 19 20 22 24 25 26 27 27 28 29 29 30 30 31 32 32 32 32 33 33 32 33 33 33 32 32 34 34 33 32 32 33 32 31 30 30 32 32 31
Wind_Direction
138 140 147 142 126 137 84 62 84 332 70 82 330 100 227 225 205 196 165 278 69 346 292 81 64 71 104 119 134 135 96 118 156 143 187 213 76 50 49 53 50 52 50 51 49 48 48 45 39 35 37 40 43 41 38 38 35 32 30 28 21 6 352 339 320 312 310 309 308 307 310 309 309 308 306 304 294 286 282 275 272 272 276 280 287 293 298 301 302 301 301 301 301 302 299 299 297
131 144 134 144 108 128 221 73 94 341 51 64 285 160 237 288 44 190 199 178 128 171 134 88 80 74 86 103 113 95 44 353 171 149 108 134 103 53 54 59 55 57 56 57 55 57 57 53 47 44 46 46 49 48 47 45 42 41 36 35 33 27 22 14 2 343 331 323 317 316 316 312 313 314 313 308 298 293 287 279 277 275 274 276 281 286 291 294 296 297 297 298 299 300 300 300 300
116 147 123 155 88 61 85 45 86 63 61 71 269 242 263 148 121 140 207 161 144 160 142 89 82 67 72 68 53 78 56 303 12 157 41 63 102 42 57 66 63 65 63 66 66 68 66 58 52 51 51 51 53 52 53 51 49 47 41 40 38 35 32 27 22 13 3 353 342 334 328 320 318 317 317 312 302 298 294 289 290 287 283 284 286 285 286 289 291 294 297 297 297 298 298 298 297
122 154 125 176 88 38 64 42 130 116 95 201 252 260 240 174 146 110 195 161 162 164 148 75 64 8 79 84 23 85 116 267 4 168 96 45 53 48 67 73 72 75 74 75 76 78 73 64 59 58 57 56 56 55 54 52 51 48 46 44 39 38 34 29 25 21 18 11 6 357 348 338 329 325 322 319 311 307 305 300 297 292 290 292 294 289 283 285 287 291 296 296 295 298 297 295 296
1 121 7 124 98 49 94 75 112 97 197 189 131 255 241 193 142 136 211 191 214 245 209 107 93 305 69 92 146 124 167 233 32 68 99 67 87 84 81 81 80 81 79 79 79 80 76 69 66 63 62 60 59 57 55 52 51 48 46 43 39 37 33 30 24 22 20 15 13 7 3 356 349 345 338 333 322 316 313 309 306 299 298 298 298 295 287 286 287 287 292 295 295 295 294 293 294
73 93 40 62 91 111 122 101 111 101 214 171 118 250 239 199 144 139 143 94 345 345 168 95 132 149 61 7 64 140 223 196 95 73 92 103 100 92 88 86 84 84 81 80 79 79 78 74 70 67 66 64 62 59 57 54 52 49 46 43 41 37 34 31 25 22 19 15 13 8 6 2 1 359 355 351 340 328 320 316 313 308 307 306 303 299 294 291 289 288 289 294 296 293 290 290 291
121 100 27 61 45 35 101 130 160 161 195 163 157 239 231 207 154 137 143 115 81 16 45 99 134 117 81 264 82 18 47 134 135 111 119 118 104 95 92 89 88 86 81 79 78 77 77 74 71 67 64 63 62 59 57 55 52 49 47 44 41 37 34 30 26 24 19 16 12 8 5 3 3 1 359 358 354 346 335 328 321 315 314 312 306 300 297 294 291 290 290 294 296 293 289 287 288
108 115 6 87 31 29 88 107 171 181 209 220 219 218 221 205 167 136 157 163 160 191 99 153 116 95 265 84 130 254 79 115 131 131 134 119 107 100 95 93 90 84 79 77 76 75 74 71 67 64 61 59 58 56 54 52 50 48 46 43 42 38 35 30 27 24 19 15 12 9 6 5 5 4 4 1 359 356 349 343 333 325 322 316 310 304 301 298 294 294 291 294 296 296 293 288 286
69 39 36 83 67 36 54 52 198 214 264 267 245 221 191 188 167 128 151 172 151 153 167 194 133 98 184 95 144 249 106 131 142 142 135 118 109 103 98 92 89 84 80 76 73 72 69 67 63 60 57 55 54 54 52 51 49 47 44 42 40 38 35 32 29 25 20 16 12 10 7 5 5 6 6 3 359 354 351 349 342 335 329 322 315 310 308 303 299 300 297 295 295 296 295 292 289
43 22 131 77 76 48 23 252 236 236 253 265 262 223 162 175 160 130 146 159 150 149 180 188 95 125 147 138 196 246 159 156 148 143 132 121 113 104 99 92 89 85 80 75 70 68 65 61 57 55 52 51 51 51 51 50 49 47 46 44 41 38 35 32 30 27 24 20 16 12 8 6 3 3 2 1 358 352 350 347 342 338 333 331 327 320 315 310 304 304 303 299 294 294 294 293 291
35 356 94 76 74 107 195 203 255 261 272 298 286 250 183 170 137 114 120 137 143 141 177 118 102 141 126 157 231 179 164 166 156 147 136 125 117 108 102 94 92 86 79 73 67 64 60 56 53 51 50 49 50 51 52 51 49 48 47 46 43 41 37 33 30 26 24 21 19 16 12 10 5 2 359 358 357 353 349 344 341 338 335 336 334 325 320 317 312 306 303 303 299 294 293 292 292
86 337 66 84 121 191 200 170 235 269 310 324 260 288 163 143 128 153 149 147 156 150 202 192 157 140 118 212 238 177 166 173 168 152 142 131 123 115 107 101 95 87 79 73 68 63 58 54 52 50 49 49 49 50 51 51 49 49 47 46 44 42 39 35 32 29 25 22 19 17 14 12 9 4 360 357 355 352 350 346 345 342 337 335 331 326 323 320 317 311 308 310 306 297 292 290 290
126 151 86 92 153 168 162 148 231 296 318 272 194 282 113 136 181 188 158 135 153 163 228 222 162 117 128 217 247 193 178 179 171 155 148 138 132 125 117 109 99 90 80 73 67 61 57 54 52 50 49 48 47 47 47 48 47 46 46 44 43 40 39 35 33 31 27 25 21 17 13 10 9 6 2 359 355 351 348 346 346 345 341 336 332 329 327 324 320 317 315 316 312 303 296 290 287
138 157 104 110 106 139 153 142 225 188 248 246 201 204 110 134 214 173 141 141 182 178 243 235 154 126 140 192 260 227 187 179 170 159 153 143 141 134 125 117 104 93 81 72 65 61 60 56 54 51 49 47 46 46 46 47 46 46 45 43 42 39 37 34 31 28 26 23 20 17 13 10 7 5 2 359 357 353 349 345 343 342 341 337 334 331 328 326 323 320 318 317 315 311 304 297 291
129 135 87 113 77 139 179 183 176 160 222 231 187 160 100 80 144 129 149 159 206 222 19 327 143 171 189 173 216 209 180 177 169 161 154 149 147 139 131 121 107 95 83 71 64 62 63 59 55 52 48 47 46 47 47 48 48 46 45 43 42 39 37 34 31 28 25 22 18 15 12 9 7 5 2 359 357 354 352 348 345 342 338 336 333 332 328 325 322 321 319 317 315 314 310 304 297
115 112 68 100 135 181 197 190 136 137 237 230 181 145 109 3 119 131 227 149 167 321 46 199 5 293 198 199 227 177 169 173 168 163 157 153 150 144 136 119 106 96 85 72 66 65 65 60 55 52 49 49 48 48 47 47 48 46 46 44 42 40 37 34 32 29 27 25 21 18 14 11 9 7 4 1 358 355 353 350 348 346 341 337 333 331 328 324 321 319 317 317 315 314 313 309 302
61 80 66 76 159 198 195 177 168 167 232 239 228 185 135 186 38 141 293 80 126 47 32 245 296 340 199 226 156 153 162 171 169 166 160 156 153 147 138 121 108 93 83 73 69 68 66 60 55 52 50 49 46 45 43 44 44 44 44 43 42 40 38 35 32 30 28 26 23 21 18 16 13 11 9 6 3 0 357 354 351 348 344 341 337 333 329 325 322 318 316 314 314 313 313 311 306
53 84 83 96 173 204 185 178 194 175 194 205 209 188 149 174 181 163 70 46 60 55 5 320 328 344 185 138 131 147 160 170 172 170 167 165 163 151 134 116 101 88 82 73 70 69 64 59 55 52 50 47 43 41 39 39 40 40 40 40 40 38 37 36 33 31 28 26 24 22 20 18 16 14 12 9 7 4 2 0 357 353 349 344 341 337 332 328 324 321 318 314 311 310 312 312 310
82 114 77 230 200 210 192 175 192 183 152 187 209 173 174 204 164 154 185 235 164 164 256 331 336 310 162 150 145 153 164 172 177 176 174 172 166 149 123 103 90 83 80 73 72 71 65 59 55 52 49 44 40 39 37 38 38 38 38 37 37 37 36 34 33 31 29 26 24 22 20 18 16 14 12 9 6 4 2 1 360 357 354 350 346 341 336 333 329 325 321 317 313 309 309 311 312
144 111 76 245 218 235 227 178 199 231 116 153 213 145 199 227 147 159 189 183 204 203 210 203 220 214 188 180 165 162 168 175 181 181 178 169 154 137 118 102 87 82 81 76 78 76 69 62 57 52 46 41 36 35 34 34 35 35 35 35 34 34 34 32 32 30 28 26 23 21 19 17 14 12 10 7 5 2 360 359 358 357 355 354 351 346 341 337 334 330 325 322 319 315 312 311 311
132 102 142 231 189 261 244 188 208 233 118 140 168 109 256 233 143 180 156 150 241 236 219 202 203 190 180 192 182 172 172 175 180 183 177 160 143 129 115 101 89 88 89 88 88 81 70 62 57 52 45 38 32 29 29 28 28 28 29 30 28 29 29 29 29 28 27 25 22 20 18 16 13 11 9 6 4 1 359 357 356 355 354 354 353 349 345 341 337 334 330 326 324 322 319 316 314
71 91 200 221 146 245 255 192 195 163 105 99 120 180 214 159 164 193 165 192 230 227 231 217 204 181 176 179 178 175 173 178 181 183 177 158 143 129 117 108 102 99 98 93 88 80 68 61 54 50 43 36 31 27 27 25 24 24 24 23 22 23 24 25 26 26 25 24 22 19 17 15 12 11 9 6 4 2 359 357 355 354 352 351 351 348 345 342 338 335 332 329 326 325 323 321 317
58 307 265 224 178 233 275 171 188 144 123 144 174 202 153 137 251 214 186 221 226 228 257 222 189 172 170 162 164 174 177 186 186 184 177 160 148 133 125 123 116 106 99 92 92 85 71 65 55 48 41 34 30 26 24 24 24 23 22 21 20 21 22 22 23 24 24 23 21 19 17 15 13 11 9 6 4 1 359 356 353 352 349 348 348 345 342 340 337 333 331 329 327 325 323 321 320
81 125 274 208 190 229 257 236 177 153 172 202 171 146 153 185 241 155 208 233 242 320 280 173 152 149 156 156 164 180 181 188 188 183 173 158 152 143 138 132 123 114 109 110 109 98 84 76 64 55 46 37 29 24 25 26 25 23 22 22 21 21 21 21 20 21 21 22 21 19 17 16 14 12 9 6 3 1 358 354 352 349 347 345 344 342 339 337 334 331 328 326 325 324 322 321 320
76 153 234 203 207 244 266 291 234 198 210 193 125 169 215 206 206 236 235 237 233 26 84 120 132 138 155 169 175 182 182 190 188 178 167 157 156 153 151 147 139 132 129 130 121 108 99 85 69 58 49 43 32 25 28 29 26 22 21 21 22 22 21 20 18 18 18 19 19 19 17 15 13 10 8 5 1 359 357 353 351 348 345 343 341 338 336 333 330 327 325 322 321 321 320 319 318
179 168 209 223 254 273 286 259 241 216 218 129 148 228 268 259 291 270 248 223 139 100 104 124 137 149 170 177 182 182 183 193 189 179 168 161 161 164 164 159 152 145 142 135 124 116 103 86 67 54 48 42 30 26 29 27 22 20 19 19 19 19 19 17 16 16 16 17 18 18 18 14 11 9 6 3 0 357 354 351 348 345 343 341 338 335 332 329 325 323 321 319 318 316 315 315 315
186 175 218 229 271 294 289 250 264 234 213 175 185 243 278 337 320 265 260 166 141 121 125 151 153 167 180 182 193 189 194 197 188 179 170 170 170 171 171 166 156 147 142 135 128 120 104 84 63 53 51 44 32 29 26 21 18 15 15 15 14 14 13 13 12 13 15 17 18 18 18 15 13 11 7 4 360 355 351 347 344 342 341 340 338 334 330 327 323 319 317 314 313 312 310 310 310
146 159 275 284 319 308 263 269 276 221 208 178 174 239 269 23 255 246 232 156 156 143 155 177 172 183 186 188 201 198 208 203 191 184 179 183 180 175 172 164 154 148 144 139 133 125 111 86 67 66 61 52 39 29 20 13 9 7 8 7 7 7 7 7 10 11 14 17 19 20 18 17 16 13 9 4 359 354 351 348 346 344 341 339 336 333 331 328 323 319 315 312 309 308 307 306 305
127 72 318 300 355 12 222 276 267 192 202 170 155 272 259 200 228 249 162 155 147 147 171 187 188 194 194 200 209 209 216 208 200 198 191 186 182 177 169 160 155 154 152 147 143 135 119 89 80 79 66 55 38 25 15 6 1 360 1 360 359 1 2 3 7 10 13 16 20 21 19 17 15 12 8 3 359 356 354 352 348 345 341 337 334 332 330 327 323 320 317 314 310 307 305 303 302
210 56 63 310 357 4 218 70 17 169 187 178 148 291 261 221 232 234 146 155 139 161 194 196 199 203 204 211 212 218 220 212 208 204 197 188 183 179 168 162 160 161 160 156 150 140 122 96 96 89 77 59 39 23 10 2 356 357 358 357 356 356 358 1 5 9 12 16 20 21 18 15 13 9 6 3 1 358 355 352 347 344 340 335 333 331 328 325 321 317 315 313 310 307 304 302 301
340 354 51 10 356 288 275 326 151 170 192 145 126 260 266 257 249 207 169 168 159 184 207 201 206 208 209 215 213 221 222 214 213 205 198 191 186 180 171 168 167 168 167 162 156 147 137 129 134 124 105 78 48 26 8 2 355 356 357 356 355 352 356 1 5 9 11 15 18 19 16 13 10 7 5 3 0 357 353 349 345 341 337 334 331 329 325 322 320 315 312 309 306 304 302 301 299
27 332 309 343 340 274 299 286 182 199 310 51 127 230 272 276 268 203 176 178 178 197 209 204 210 210 210 217 213 221 227 222 220 212 202 194 190 182 176 174 173 176 173 169 166 161 163 166 163 149 128 94 50 25 9 2 354 355 356 355 353 350 354 0 5 9 10 13 15 16 14 10 8 6 3 1 358 355 351 347 344 340 337 333 329 327 323 319 318 314 310 307 303 300 298 297 296
3 42 254 277 250 291 315 314 224 232 67 338 203 232 276 277 278 204 182 185 193 211 217 213 214 211 211 215 214 216 222 226 226 219 206 196 193 186 180 179 179 181 180 177 174 172 175 175 170 156 134 86 32 16 4 358 353 351 351 351 349 348 351 356 3 6 8 10 12 13 11 7 5 3 0 358 355 353 351 348 346 343 339 334 329 326 323 319 317 312 309 306 301 298 295 292 292
327 12 254 255 237 263 300 305 313 27 157 226 226 232 258 264 258 200 196 193 197 216 222 219 216 212 213 213 214 216 214 218 221 214 204 197 195 189 184 184 185 187 186 182 179 180 181 179 174 159 134 45 14 4 357 352 348 345 346 346 344 345 347 353 359 1 3 6 9 10 6 3 0 359 357 354 353 351 349 348 346 345 341 337 332 327 324 321 318 313 308 305 301 297 293 290 290
254 259 249 278 272 243 254 274 292 55 237 238 218 237 257 267 268 229 200 194 204 219 223 222 218 212 215 215 215 217 216 216 215 207 200 197 195 191 188 187 189 192 190 186 184 186 185 183 180 172 179 358 357 350 348 344 344 342 342 343 341 342 343 349 354 354 358 0 4 5 1 358 355 354 353 351 350 348 347 346 345 344 342 339 335 331 327 324 320 314 307 304 302 294 287 287 288
204 213 193 231 264 262 240 239 262 318 298 263 237 238 257 270 274 259 210 193 214 227 227 230 223 213 214 217 219 216 217 219 212 206 201 198 195 193 191 189 192 195 192 189 188 191 191 189 193 201 228 309 334 335 337 338 340 339 339 340 338 340 341 343 345 346 352 355 357 359 356 352 350 349 348 347 347 345 344 343 342 342 341 338 334 330 326 323 318 314 308 303 301 296 287 283 285
144 153 181 227 239 268 262 237 285 354 252 269 253 242 257 264 271 271 231 187 221 230 228 234 223 216 216 215 220 217 218 217 204 207 204 199 197 195 193 192 193 194 191 191 191 195 198 200 210 217 233 279 311 323 328 331 337 338 338 336 333 335 337 336 339 343 347 349 350 351 350 348 345 344 344 343 343 343 342 341 340 339 337 334 329 323 319 315 311 308 305 301 298 297 292 286 285
112 169 215 264 237 257 273 266 319 350 169 269 283 268 262 259 266 273 249 197 228 222 220 236 224 219 222 216 221 218 213 202 194 209 206 199 197 196 196 195 195 194 191 191 194 198 203 212 222 226 239 269 303 314 318 324 332 333 330 327 326 328 331 332 334 340 342 343 345 345 344 343 341 340 340 339 339 339 339 338 337 334 331 326 320 314 310 307 306 305 304 300 297 295 293 291 289
114 147 188 270 252 272 292 316 356 350 175 272 298 289 270 264 262 266 257 234 239 221 214 233 224 218 225 219 221 213 204 201 199 208 204 198 197 196 198 198 198 197 193 192 195 200 207 218 229 234 247 269 295 304 308 315 322 325 322 321 322 320 322 324 328 335 337 338 341 340 339 339 337 337 336 335 335 335 335 334 332 328 324 320 314 311 309 309 309 309 307 301 299 296 293 291 287
155 157 188 257 268 298 284 310 344 303 229 274 289 282 268 263 257 261 266 253 248 234 226 236 224 221 228 219 215 207 203 205 202 205 201 197 197 198 200 200 200 199 195 195 197 202 211 220 232 240 253 272 289 297 302 306 314 320 319 320 322 320 319 319 324 331 331 331 335 337 336 335 333 332 332 331 330 330 329 328 327 324 322 319 315 312 310 311 311 309 306 300 298 297 294 292 286
252 205 207 242 255 237 239 293 329 316 321 322 307 294 274 252 241 255 294 343 273 250 246 253 234 227 237 226 213 208 207 204 201 201 195 193 197 199 201 200 200 199 197 199 202 206 214 222 234 245 256 272 286 294 298 302 310 316 319 323 327 329 327 326 326 328 328 329 332 332 331 329 327 325 325 325 323 322 321 321 322 321 320 318 314 310 308 308 307 304 301 296 292 291 291 292 287
297 236 214 228 241 249 274 336 347 348 330 330 9 325 287 259 219 254 289 340 283 251 245 258 247 224 228 229 221 211 208 206 201 198 192 193 195 196 201 201 199 200 200 201 205 208 215 225 235 246 255 271 287 294 296 300 306 313 319 324 327 328 326 326 327 326 326 328 329 328 326 325 323 321 321 321 319 318 317 318 320 318 316 314 311 309 307 306 305 301 298 293 288 286 287 287 284
298 256 206 208 201 232 316 2 357 308 263 302 47 332 275 272 196 248 259 276 278 264 246 257 256 231 222 228 224 209 206 204 198 196 192 192 191 192 198 199 198 200 201 201 205 209 217 230 239 246 254 274 292 296 294 296 302 310 316 318 319 317 313 316 322 320 319 321 323 323 322 321 321 320 319 319 317 316 315 317 318 317 314 312 311 309 306 306 303 300 297 291 288 285 282 281 281
243 237 127 121 119 152 175 93 339 247 268 304 204 172 274 277 239 253 252 245 273 274 265 264 256 237 230 229 223 210 206 199 194 195 192 193 192 192 195 196 199 200 199 201 206 211 218 231 244 247 254 282 299 294 290 294 301 308 312 314 315 314 310 312 316 315 314 316 317 318 318 317 318 317 316 315 315 313 312 314 315 316 314 312 311 307 305 305 303 301 296 291 287 283 278 276 277
238 201 124 108 116 148 146 120 218 273 358 296 223 153 277 273 250 328 22 208 255 266 262 264 258 244 234 229 222 212 207 197 194 196 193 194 194 194 194 195 199 199 199 205 208 212 220 232 249 251 256 286 298 290 287 293 300 305 309 312 313 316 315 314 314 312 313 315 314 315 315 314 314 313 312 311 311 309 309 311 313 313 312 311 308 305 303 303 302 299 294 290 286 280 275 272 270
205 145 109 74 74 85 90 111 176 31 324 266 222 168 233 275 228 121 77 204 237 250 255 261 263 256 237 227 223 209 200 196 197 198 194 195 194 193 195 196 198 199 202 208 211 215 222 235 252 254 259 286 294 286 285 292 301 305 308 312 313 315 317 315 312 310 313 315 314 313 313 312 311 309 309 308 308 308 309 310 311 310 309 308 305 302 300 300 299 296 292 288 284 279 274 271 268
139 108 65 32 37 49 52 54 73 40 276 268 227 182 191 285 251 160 172 211 205 215 247 265 270 270 251 226 219 200 196 196 195 197 191 191 192 192 195 197 198 200 205 212 215 218 225 239 253 255 265 285 289 285 286 293 304 308 311 315 314 315 316 313 310 310 314 316 313 312 312 310 309 307 306 305 305 307 308 308 308 307 305 304 301 298 297 296 295 293 290 285 280 276 274 274 273
109 88 53 11 338 11 20 356 42 59 255 271 243 184 185 247 248 195 231 253 213 196 226 249 259 270 256 218 215 200 197 195 188 189 185 184 189 191 194 197 201 204 209 215 217 220 229 242 252 255 268 285 287 285 289 297 307 313 317 319 317 316 314 310 308 309 312 313 310 310 310 308 306 305 305 304 305 306 306 306 305 303 302 299 296 295 293 293 292 290 286 282 278 275 273 274 274
96 94 77 42 325 352 346 313 53 224 251 263 172 167 216 248 246 231 241 254 240 219 222 236 254 271 264 210 215 205 194 192 187 187 187 187 189 188 190 197 203 207 211 213 215 220 231 242 247 256 272 287 291 290 297 304 312 318 321 320 318 315 312 309 309 308 309 309 307 306 305 304 303 303 303 304 304 305 304 303 301 300 298 295 292 292 291 290 288 285 283 280 277 275 273 273 272
145 147 132 144 139 21 275 276 278 268 272 249 164 156 259 270 261 230 227 234 237 234 234 238 255 271 260 224 212 203 197 193 189 191 192 193 192 188 190 196 203 206 208 209 211 220 232 240 244 260 276 289 295 297 306 311 317 322 321 319 317 314 312 310 308 308 308 307 305 303 301 300 300 301 302 302 303 303 301 299 298 296 295 292 290 289 289 288 285 282 279 278 276 275 274 273 270
173 155 138 157 155 172 227 234 246 277 294 251 186 185 236 260 280 220 213 233 246 253 258 256 270 262 238 230 212 202 200 193 192 197 197 198 193 189 191 196 201 203 204 205 210 222 232 238 246 266 282 291 297 303 312 317 319 321 319 317 315 313 311 310 308 308 307 306 304 301 299 299 299 300 301 302 302 302 300 298 296 294 293 290 288 288 288 286 284 281 278 277 276 275 274 271 268
210 128 117 180 183 170 210 218 201 267 316 276 199 222 230 217 266 244 212 258 263 267 272 265 271 260 213 226 220 205 200 194 196 199 199 200 195 192 194 197 201 202 202 205 213 224 231 240 255 271 283 291 301 308 314 318 317 317 317 315 315 314 312 312 311 309 307 305 302 300 299 300 300 301 301 302 302 301 299 297 296 293 291 289 287 286 286 284 284 283 279 277 275 275 274 271 269
169 135 175 215 184 132 142 268 11 61 300 273 226 253 273 301 277 249 185 257 258 255 258 251 252 252 220 235 225 204 203 197 198 200 199 198 195 196 197 197 201 202 203 208 214 224 231 244 262 274 283 291 301 307 311 314 315 314 315 315 316 316 315 314 311 309 307 304 302 300 301 301 301 301 301 301 301 299 298 296 295 293 291 289 287 285 284 284 284 282 279 275 273 274 274 272 273
130 183 212 198 126 94 102 247 340 30 258 273 271 262 277 287 282 287 133 234 253 251 248 243 240 228 234 242 228 207 206 197 199 203 199 197 196 197 198 200 204 203 204 210 213 221 232 247 264 274 283 289 296 303 305 310 312 311 313 316 317 317 317 314 309 307 305 304 303 303 303 302 302 303 302 301 300 299 297 295 294 292 291 290 288 286 285 284 283 281 277 274 272 272 272 273 273
132 202 218 119 142 166 110 154 245 258 236 275 280 278 277 255 239 256 220 217 232 244 242 230 224 225 231 240 227 207 203 196 200 201 197 200 198 196 196 199 203 203 204 209 210 218 232 247 260 269 277 282 290 297 303 308 309 309 312 315 318 318 316 312 308 307 306 305 305 306 305 304 303 304 303 301 300 298 297 296 294 292 291 290 289 287 285 284 282 280 277 274 272 270 270 270 270
72 294 322 38 162 173 166 155 177 199 213 270 288 292 282 228 184 231 234 209 203 225 235 223 222 226 226 230 221 204 200 201 202 201 199 200 198 196 196 197 199 200 202 205 208 219 232 245 253 260 268 275 286 296 302 307 309 311 315 318 320 318 314 311 310 309 308 307 308 308 307 306 305 304 302 301 299 297 296 295 294 293 291 289 289 288 287 285 281 278 276 274 273 271 269 269 270
151 181 202 231 171 119 220 222 139 148 196 240 277 284 276 238 155 209 225 202 196 208 220 218 219 227 227 223 215 203 202 205 202 200 198 195 195 196 196 197 196 194 197 201 209 221 232 241 246 255 267 276 289 299 303 306 310 315 318 320 319 316 314 314 314 313 311 310 310 309 308 307 305 303 303 301 300 297 296 295 293 292 289 287 288 288 288 285 280 277 275 274 274 272 269 269 270
175 194 195 192 173 124 208 248 213 158 201 209 176 265 275 260 142 194 208 189 200 205 212 218 217 225 227 222 215 204 202 208 203 198 195 192 193 192 191 192 188 188 195 202 211 223 231 238 245 258 272 283 296 303 304 308 315 319 319 319 317 317 318 318 317 315 313 312 312 311 310 308 305 304 304 302 300 299 297 295 292 290 287 287 288 288 287 284 280 277 275 275 274 272 270 270 270